sat.trackr.live / text

‹ back to catalog

STARLINK-30590

NORAD 58090 · 2023-160R

PAYLOAD ACTIVE UNKNOWN

§ Identity

Operator
Country
US
Launch date
2023-10-18
Launch site
AFETR
Launch vehicle
Mass (kg)
RCS (m²)

Purposes: comms

External: N2YO · Heavens-Above · Gunter

§ Orbital elements

Epoch: 2026-09-20T14:38:21.000192Z

Period
94.27 min
Inclination
43.0026°
Eccentricity
0.0001176
Mean motion
15.27575966 rev/d
Perigee alt
482.3 km
Apogee alt
483.9 km
Semi-major
6,861.2 km
B*
4.7514e-5
RAAN
60.6999°
Arg perigee
276.6841°
Mean anomaly
83.3877°
Rev number
16,271

§ Raw data

STARLINK-305901 58090U 23160R   26263.60996528  .00001045  00000+0  47514-4 0  99922 58090  43.0026  60.6999 0001176 276.6841  83.3877 15.27575966162713

JSON: /api/v1/satellites/58090 · /tle

For live sub-satellite position, see the globe view (requires WebGL).

§ Visibility from observer

Set your observer location to see the next 7 days of passes ≥ 10°. The values pass through the URL so the page stays shareable.

No JS? Fill the form by hand. The geolocation button needs JavaScript.